#timestamp,LO_Frequency,Hit,StdDev 
1510549215.5,286047010.1,N
1510549235.3,286047010.7,N
1510549255.2,286047008.8,N
1510549275.0,286047008.2,N
1510549275.9,286047008.2,N
1510549295.7,286047008.0,N
1510549315.6,286047004.8,N
1510549335.4,286047001.6,N
1510549355.2,286046999.3,N
1510549375.1,286046996.1,N
1510549376.0,286046996.1,N
1510549395.8,286046993.5,N
1510549415.6,286046992.5,N
1510549435.5,286046991.5,N
1510549455.3,286046990.7,N
1510549475.1,286046986.9,N
1510549495.9,286046983.9,N
1510549515.7,286046982.9,N
1510549535.5,286046981.7,N
1510549555.3,286046983.0,N
1510549575.2,286046979.0,N
1510549595.0,286046980.7,N
1510549595.9,286046980.7,N
1510549615.7,286046981.2,N
1510549635.6,286046979.6,N
1510549655.4,286046980.4,N
1510549675.2,286046981.8,N
1510549695.1,286046981.0,N
1510549696.0,286046981.0,N
1510549715.8,286046981.8,N
1510549735.6,286046981.6,N
1510549755.5,286046980.9,N
1510549775.3,286046977.8,N
1510549795.1,286046980.0,N
1510549815.9,286046977.2,N
1510549835.7,286046973.3,Y
1510549855.5,286046987.5,P
1510549875.4,286046987.5,P
1510549895.2,286046989.8,P
1510549915.0,286046987.2,Y
1510549915.9,286046987.2,P
1510549935.8,286047000.6,N
1510549955.6,286047000.3,N
1510549975.4,286046998.1,N
1510549995.3,286046998.2,N
1510550015.1,286046998.5,N
1510550016.0,286046998.5,N
1510550035.8,286046999.8,N
1510550055.7,286047002.3,N
1510550075.5,286047000.1,N
1510550095.3,286047004.8,N
1510550115.1,286047005.2,N
1510550135.9,286047006.7,N
1510550155.7,286047005.1,N
1510550175.5,286047007.5,N
1510550195.4,286047007.9,N
1510550215.2,286047010.5,N
1510550235.0,286047013.6,N
1510550235.9,286047013.6,N
1510550255.8,286047011.9,N
1510550275.6,286047013.5,N
1510550295.4,286047016.6,N
1510550315.3,286047016.5,N
1510550335.1,286047014.1,N
1510550336.0,286047014.1,N
1510550355.8,286047017.0,N
1510550375.7,286047018.6,N
1510550395.5,286047019.3,N
1510550415.3,286047017.7,N
1510550435.1,286047019.8,N
1510550455.9,286047021.6,N
1510550475.7,286047021.8,N
1510550495.5,286047021.8,N
1510550515.4,286047022.5,N
1510550535.2,286047023.0,N
1510550555.0,286047025.2,Y
1510550555.9,286047025.2,P
1510550575.8,286047009.5,N
1510550595.6,286047012.1,N
1510550615.4,286047013.8,N
1510550635.3,286047013.0,N
1510550655.1,286047014.9,N
1510550675.8,286047015.2,Y
1510550695.7,286047002.6,P
1510550715.5,286046999.3,N
1510550735.3,286046999.4,N
1510550755.2,286047000.7,N
1510550775.9,286046995.2,N
1510550795.7,286046995.3,N
1510550815.6,286046995.8,N
1510550835.4,286046997.1,N
1510550855.2,286046995.0,N
1510550875.0,286046999.1,N
1510550875.9,286046999.1,N
1510550895.8,286047001.2,N
1510550915.6,286047002.2,N
1510550935.4,286047003.7,N
1510550955.3,286047003.5,N
1510550975.1,286047004.8,N
1510550995.8,286047001.8,N
1510551015.7,286047003.2,N
1510551035.5,286047001.7,N
1510551055.3,286047005.9,N
1510551075.2,286047000.0,N
1510551095.9,286046996.9,N
1510551115.7,286046995.4,N
1510551135.6,286046995.0,N
1510551155.4,286046999.5,N
1510551175.2,286046995.9,N
1510551195.0,286046996.5,N
1510551195.9,286046996.5,N
1510551215.8,286047002.8,N
1510551235.6,286047000.6,N
1510551255.4,286047004.1,N
1510551275.3,286047001.7,N
1510551295.1,286047001.9,N
1510551315.8,286047000.6,N
1510551335.7,286046998.1,N
1510551355.5,286046998.2,N
1510551375.3,286046996.2,N
1510551395.2,286046996.3,N
1510551415.9,286046993.8,N
1510551435.7,286046992.0,N
1510551455.6,286046988.2,Y
1510551475.4,286046989.6,P
1510551495.2,286046986.4,N
1510551515.1,286046981.6,P
1510551516.0,286046981.6,N
1510551535.8,286046980.6,N
1510551555.6,286046981.4,N
1510551575.4,286046981.1,N
1510551595.3,286046981.7,N
1510551615.1,286046979.3,Y
1510551635.8,286046995.9,P
1510551655.7,286046990.3,N
1510551675.5,286046991.3,N
1510551695.3,286046990.9,N
1510551715.2,286046991.0,N
1510551735.0,286046991.2,N
1510551735.9,286046991.2,N
1510551755.7,286046986.9,Y
1510551775.6,286047001.2,P
1510551795.4,286046998.7,N
1510551815.2,286046998.6,N
1510551835.1,286047000.8,N
1510551836.0,286047000.8,N
1510551855.8,286046997.3,N
1510551875.6,286046997.5,N
1510551895.5,286046994.9,N
1510551915.3,286046995.6,N
1510551935.1,286046995.8,N
1510551955.9,286046992.7,N
1510551975.7,286046996.0,N
1510551995.5,286046999.6,N
1510552015.4,286046997.5,N
1510552035.2,286046996.9,N
1510552055.0,286046997.1,N
1510552055.9,286046997.1,N
1510552075.7,286046996.1,N
1510552095.6,286046998.3,N
1510552115.4,286046996.9,N
1510552135.2,286046996.6,N
1510552155.1,286046993.6,N
1510552156.0,286046993.6,N
1510552175.8,286046994.1,N
1510552195.6,286046995.7,N
1510552215.5,286046997.6,N
1510552235.3,286046996.7,N
1510552255.1,286046998.4,N
1510552275.9,286047000.1,N
1510552295.7,286047003.7,N
1510552315.5,286047006.0,N
1510552335.4,286047006.8,N
1510552355.2,286047006.3,N
1510552375.0,286047004.2,N
1510552375.9,286047004.2,N
1510552395.7,286047002.5,N
1510552415.6,286047001.3,N
1510552435.4,286047004.3,N
1510552455.2,286047005.7,N
1510552475.1,286047004.9,N
1510552476.0,286047004.9,N
1510552495.8,286047006.3,N
1510552515.6,286047005.5,N
1510552535.5,286047004.6,N
1510552555.3,286047004.7,N
1510552575.1,286047004.9,N
1510552595.9,286047007.3,N
1510552615.7,286047006.9,N
1510552635.5,286047008.9,N
1510552655.4,286047010.7,N
1510552675.2,286047006.3,N
1510552695.0,286047009.7,N
1510552695.9,286047009.7,N
1510552715.8,286047011.4,N
1510552735.6,286047014.0,Y
1510552755.4,286047004.5,P
1510552775.3,286047006.4,P
1510552795.1,286047010.6,P
1510552796.0,286047010.6,Y
